一网星座-0200星 (ONEWEB-0200 )

导读 | 星芒AI

ONEWEB-0200 是 OneWeb 卫星星座计划中的一颗低轨通信卫星,旨在为全球提供高速互联网服务。该卫星采用模块化设计,由美国蓝色峡谷技术公司(Blue Canyon Technologies)制造,由阿丽亚娜航天公司发射。作为 OneWeb 计划部署的数千颗卫星之一,ONEWEB-0200 运行在约 1200 公里的近地轨道,支持极地覆盖,特别服务于偏远和网络基础设施薄弱的地区。该星座致力于实现全球无缝宽带连接,推动数字包容性。

基本信息
目录编号:
48244
目录名称:
ONEWEB-0200
国际标识:
2021-031AL
轨道中心:
EARTH
卫星名称:
一网星座-0200星
卫星全名:
一网星座-0200星 (ONEWEB-0200 )
卫星状态:
在轨 (已飞行1695 天)
发射日期:
2021-04-25 UTC
国别 :
英国 (GB)
星等 :
--
轨道信息
数据来源 国际轨道数据
星历时间: 2025-12-15T06:02:34+0800
20小时前
查看轨道信息
半长轴: 7583.935km
偏心率: 0.0001671
轨道倾角: 87.899°
近地点辐角 83.141°
升交点赤经 326.406°
平近点角 276.992°
近地点: 1204.532km
远地点: 1207.068km
周期: 109.547分钟
每日圈数: 13.14501
详细信息
平衡模式:
三轴稳定
覆盖范围:
全球
运营商:
一网卫星公司
运营商所在国:
英国
制造商(研发单位):
一网卫星公司
制造商所在国:
英国
使用方式:
暂无
卫星简介
OneWeb卫星网络由648颗重约125公斤的微型卫星组成,运行在1200公里的轨道上。 每颗卫星都能够提供至少每秒8千兆位的吞吐量,以使用其高吞吐量的Ku频段有效载荷为家庭和移动平台提供互联网接入。该卫星仍在工作。
2D轨道图
3D轨道图
轨道高度分析图
轨道倾角分析图
轨道综合分析图
查看轨道综合分析图